DAL673 KLAX-KSLC

Flight info

Callsign DAL673
Flight time 1h 28m
Altitude 37000
Route ORCKA5 LAS Q70 BLIPP Q842 WINEN MLF PITTT2
Aircraft A320/M-SDE3FGHIRWY/LB1

Departure

Time 2026-04-26 15:24
Airport Los Angeles International Airport (KLAX)

Arrival

Time 2026-04-26 16:52
Airport Salt Lake City International Airport (KSLC)
Time Latitude Longitude Altitude Speed Heading
2026-04-26 15:15 33.94637 -118.40839 126 ft 0 kts 86°
2026-04-26 15:16 33.94637 -118.40840 124 ft 1 kts 86°
2026-04-26 15:16 33.94635 -118.40868 126 ft 4 kts 73°
2026-04-26 15:16 33.94623 -118.40894 124 ft 4 kts 28°
2026-04-26 15:17 33.94605 -118.40899 122 ft 1 kts 353°
2026-04-26 15:17 33.94601 -118.40899 126 ft 0 kts 353°
2026-04-26 15:19 33.94605 -118.40899 122 ft 4 kts 353°
2026-04-26 15:19 33.94691 -118.40912 125 ft 15 kts 352°
2026-04-26 15:19 33.94754 -118.40852 126 ft 12 kts 75°
2026-04-26 15:20 33.94771 -118.40755 126 ft 11 kts 82°
2026-04-26 15:20 33.94781 -118.40668 126 ft 10 kts 82°
2026-04-26 15:20 33.94790 -118.40590 121 ft 9 kts 82°
2026-04-26 15:20 33.94797 -118.40520 126 ft 8 kts 83°
2026-04-26 15:21 33.94803 -118.40459 123 ft 7 kts 83°
2026-04-26 15:21 33.94808 -118.40408 126 ft 6 kts 83°
2026-04-26 15:21 33.94813 -118.40365 126 ft 5 kts 82°
2026-04-26 15:21 33.94817 -118.40331 123 ft 4 kts 82°
2026-04-26 15:22 33.94820 -118.40304 123 ft 3 kts 82°
2026-04-26 15:22 33.94831 -118.40198 125 ft 21 kts 83°
2026-04-26 15:22 33.94863 -118.40086 122 ft 8 kts 20°
2026-04-26 15:22 33.94913 -118.40075 124 ft 7 kts
2026-04-26 15:23 33.94956 -118.40070 124 ft 6 kts
2026-04-26 15:23 33.94990 -118.40073 124 ft 4 kts 344°
2026-04-26 15:23 33.95010 -118.40096 122 ft 7 kts 297°
2026-04-26 15:23 33.94992 -118.40401 126 ft 73 kts 263°
2026-04-26 15:24 33.94907 -118.41262 127 ft 131 kts 263°
2026-04-26 15:24 33.94768 -118.42467 463 ft 150 kts 263°
2026-04-26 15:24 33.94624 -118.43733 1124 ft 152 kts 263°
2026-04-26 15:24 33.94493 -118.45005 1823 ft 153 kts 264°
2026-04-26 15:25 33.94295 -118.46319 2226 ft 173 kts 248°
2026-04-26 15:25 33.93776 -118.47098 2448 ft 192 kts 216°
2026-04-26 15:25 33.91860 -118.47275 2939 ft 237 kts 159°
2026-04-26 15:25 33.90430 -118.46063 3409 ft 264 kts 143°
2026-04-26 15:26 33.88882 -118.44793 4184 ft 273 kts 152°
2026-04-26 15:26 33.87277 -118.43512 5064 ft 282 kts 140°
2026-04-26 15:26 33.86086 -118.41647 5937 ft 291 kts 116°
2026-04-26 15:26 33.85616 -118.39272 6842 ft 296 kts 88°
2026-04-26 15:27 33.86040 -118.36866 7692 ft 295 kts 60°
2026-04-26 15:27 33.87273 -118.34916 8539 ft 293 kts 35°
2026-04-26 15:27 33.89051 -118.33784 9430 ft 287 kts 11°
2026-04-26 15:27 33.90987 -118.33160 10266 ft 293 kts
2026-04-26 15:28 33.93044 -118.32513 10617 ft 317 kts 10°
2026-04-26 15:28 33.95264 -118.31811 10965 ft 340 kts 10°
2026-04-26 15:28 33.97548 -118.31006 11619 ft 354 kts 16°
2026-04-26 15:28 33.99793 -118.29654 12444 ft 365 kts 28°
2026-04-26 15:29 34.01816 -118.27729 13213 ft 375 kts 40°
2026-04-26 15:29 34.03514 -118.25279 14021 ft 385 kts 52°
2026-04-26 15:29 34.06536 -118.19899 15415 ft 394 kts 52°
2026-04-26 15:30 34.09677 -118.14364 16650 ft 405 kts 52°
2026-04-26 15:30 34.11282 -118.11538 17274 ft 410 kts 52°
2026-04-26 15:30 34.12901 -118.08684 17890 ft 415 kts 52°
2026-04-26 15:31 34.14541 -118.05783 18485 ft 420 kts 53°
2026-04-26 15:31 34.17838 -117.99919 19590 ft 428 kts 53°
2026-04-26 15:31 34.19516 -117.96927 20169 ft 432 kts 53°
2026-04-26 15:32 34.22366 -117.91856 21078 ft 438 kts 53°
2026-04-26 15:32 34.24654 -117.87787 21803 ft 443 kts 53°
2026-04-26 15:32 34.26392 -117.84691 22327 ft 446 kts 53°
2026-04-26 15:33 34.28140 -117.81568 22833 ft 450 kts 53°
2026-04-26 15:33 34.29900 -117.78418 23341 ft 453 kts 53°
2026-04-26 15:33 34.31650 -117.75285 23767 ft 456 kts 54°
2026-04-26 15:33 34.33437 -117.72084 24125 ft 460 kts 53°
2026-04-26 15:34 34.35234 -117.68865 24488 ft 463 kts 53°
2026-04-26 15:34 34.37077 -117.65651 24830 ft 465 kts 52°
2026-04-26 15:34 34.38973 -117.62461 25166 ft 468 kts 51°
2026-04-26 15:34 34.40910 -117.59271 25500 ft 471 kts 51°
2026-04-26 15:35 34.42840 -117.56106 25814 ft 474 kts 51°
2026-04-26 15:35 34.44798 -117.52876 26175 ft 475 kts 51°
2026-04-26 15:35 34.46746 -117.49627 26628 ft 476 kts 52°
2026-04-26 15:35 34.48689 -117.46364 26970 ft 478 kts 52°
2026-04-26 15:36 34.50635 -117.43086 27292 ft 480 kts 52°
2026-04-26 15:36 34.52591 -117.39786 27598 ft 483 kts 52°
2026-04-26 15:36 34.54557 -117.36464 27899 ft 485 kts 52°
2026-04-26 15:36 34.56532 -117.33125 28189 ft 488 kts 52°
2026-04-26 15:37 34.58519 -117.29768 28471 ft 490 kts 52°
2026-04-26 15:37 34.60491 -117.26434 28741 ft 492 kts 52°
2026-04-26 15:37 34.62498 -117.23040 28990 ft 494 kts 52°
2026-04-26 15:37 34.64508 -117.19637 29227 ft 496 kts 52°
2026-04-26 15:38 34.66525 -117.16220 29408 ft 499 kts 52°
2026-04-26 15:38 34.68553 -117.12784 29634 ft 501 kts 52°
2026-04-26 15:38 34.70560 -117.09377 29887 ft 502 kts 52°
2026-04-26 15:38 34.72591 -117.05925 30174 ft 502 kts 52°
2026-04-26 15:39 34.74624 -117.02462 30407 ft 503 kts 52°
2026-04-26 15:39 34.76660 -116.98991 30646 ft 503 kts 52°
2026-04-26 15:39 34.78699 -116.95514 30897 ft 504 kts 52°
2026-04-26 15:39 34.80050 -116.93207 31065 ft 505 kts 52°
2026-04-26 15:40 34.82779 -116.88545 31419 ft 506 kts 52°
2026-04-26 15:40 34.84820 -116.85058 31714 ft 505 kts 52°
2026-04-26 15:40 34.86864 -116.81564 31900 ft 508 kts 52°
2026-04-26 15:40 34.88892 -116.78089 32111 ft 509 kts 52°
2026-04-26 15:41 34.90945 -116.74565 32343 ft 510 kts 52°
2026-04-26 15:41 34.93172 -116.71205 32574 ft 508 kts 44°
2026-04-26 15:41 34.95580 -116.68048 32797 ft 509 kts 44°
2026-04-26 15:41 34.97995 -116.64885 33024 ft 510 kts 44°
2026-04-26 15:42 35.00415 -116.61705 33254 ft 510 kts 44°
2026-04-26 15:42 35.02834 -116.58524 33497 ft 511 kts 44°
2026-04-26 15:42 35.05250 -116.55343 33745 ft 512 kts 44°
2026-04-26 15:42 35.07640 -116.52190 33985 ft 511 kts 44°
2026-04-26 15:43 35.10057 -116.48992 34202 ft 512 kts 44°
2026-04-26 15:43 35.12474 -116.45788 34422 ft 512 kts 44°
2026-04-26 15:43 35.17304 -116.39378 34879 ft 512 kts 44°
2026-04-26 15:44 35.19711 -116.36181 35136 ft 511 kts 44°
2026-04-26 15:44 35.24515 -116.29791 35556 ft 510 kts 44°
2026-04-26 15:44 35.26927 -116.26587 35738 ft 511 kts 44°
2026-04-26 15:45 35.31744 -116.20176 36102 ft 511 kts 45°
2026-04-26 15:45 35.34117 -116.17013 36262 ft 511 kts 45°
2026-04-26 15:46 35.38933 -116.10583 36617 ft 512 kts 45°
2026-04-26 15:46 35.41339 -116.07358 36784 ft 512 kts 45°
2026-04-26 15:46 35.44564 -116.03027 36830 ft 514 kts 45°
2026-04-26 15:47 35.52591 -115.92246 36835 ft 515 kts 45°
2026-04-26 15:48 35.57428 -115.85742 36831 ft 515 kts 45°
2026-04-26 15:48 35.62267 -115.79224 36828 ft 515 kts 45°
2026-04-26 15:49 35.67047 -115.72731 36831 ft 515 kts 45°
2026-04-26 15:49 35.71821 -115.66140 36824 ft 515 kts 46°
2026-04-26 15:50 35.76588 -115.59537 36825 ft 517 kts 45°
2026-04-26 15:50 35.81391 -115.52908 36822 ft 518 kts 45°
2026-04-26 15:51 35.86165 -115.46328 36833 ft 518 kts 45°
2026-04-26 15:51 35.90970 -115.39676 36836 ft 519 kts 45°
2026-04-26 15:52 35.95766 -115.32994 36817 ft 518 kts 45°
2026-04-26 15:52 36.00516 -115.26378 36836 ft 518 kts 45°
2026-04-26 15:53 36.05295 -115.19722 36824 ft 518 kts 45°
2026-04-26 15:53 36.10348 -115.13416 36828 ft 513 kts 37°
2026-04-26 15:54 36.15745 -115.07628 36775 ft 513 kts 37°
2026-04-26 15:54 36.21120 -115.01840 36774 ft 511 kts 38°
2026-04-26 15:55 36.26474 -114.96057 36767 ft 510 kts 38°
2026-04-26 15:55 36.31790 -114.90304 36761 ft 509 kts 38°
2026-04-26 15:56 36.37123 -114.84515 36746 ft 509 kts 38°
2026-04-26 15:56 36.42453 -114.78728 36729 ft 508 kts 38°
2026-04-26 15:57 36.47748 -114.72982 36712 ft 506 kts 38°
2026-04-26 15:57 36.53050 -114.67219 36708 ft 505 kts 38°
2026-04-26 15:58 36.58331 -114.61453 36712 ft 505 kts 38°
2026-04-26 15:58 36.63608 -114.55673 36710 ft 504 kts 38°
2026-04-26 15:59 36.68857 -114.49921 36710 ft 504 kts 38°
2026-04-26 15:59 36.74481 -114.44790 36730 ft 499 kts 28°
2026-04-26 16:00 36.80378 -114.40194 36722 ft 499 kts 28°
2026-04-26 16:00 36.86228 -114.35600 36724 ft 499 kts 28°
2026-04-26 16:01 36.92107 -114.30970 36715 ft 499 kts 28°
2026-04-26 16:01 36.97992 -114.26337 36712 ft 499 kts 28°
2026-04-26 16:02 37.03877 -114.21693 36747 ft 499 kts 28°
2026-04-26 16:02 37.09711 -114.17082 36731 ft 499 kts 28°
2026-04-26 16:03 37.15589 -114.12425 36738 ft 499 kts 28°
2026-04-26 16:03 37.21469 -114.07769 36733 ft 499 kts 29°
2026-04-26 16:04 37.27299 -114.03136 36747 ft 499 kts 28°
2026-04-26 16:04 37.33172 -113.98450 36779 ft 499 kts 29°
2026-04-26 16:05 37.39030 -113.93765 36755 ft 499 kts 29°
2026-04-26 16:05 37.44907 -113.89068 36757 ft 499 kts 29°
2026-04-26 16:06 37.50729 -113.84401 36755 ft 499 kts 29°
2026-04-26 16:06 37.56585 -113.79699 36758 ft 498 kts 29°
2026-04-26 16:07 37.62431 -113.74996 36762 ft 498 kts 29°
2026-04-26 16:07 37.68238 -113.70323 36746 ft 497 kts 30°
2026-04-26 16:08 37.74087 -113.65616 36741 ft 497 kts 30°
2026-04-26 16:08 37.79918 -113.60902 36722 ft 497 kts 30°
2026-04-26 16:09 37.85743 -113.56171 36733 ft 497 kts 30°
2026-04-26 16:09 37.91530 -113.51469 36723 ft 497 kts 30°
2026-04-26 16:10 37.96929 -113.45963 36703 ft 499 kts 40°
2026-04-26 16:10 38.02108 -113.40077 36695 ft 499 kts 40°
2026-04-26 16:11 38.07287 -113.34189 36684 ft 499 kts 40°
2026-04-26 16:11 38.12434 -113.28332 36692 ft 499 kts 40°
2026-04-26 16:12 38.17609 -113.22433 36703 ft 499 kts 40°
2026-04-26 16:12 38.25326 -113.13624 36736 ft 498 kts 40°
2026-04-26 16:13 38.30476 -113.07713 36754 ft 498 kts 40°
2026-04-26 16:13 38.35790 -113.02060 36768 ft 496 kts 31°
2026-04-26 16:14 38.41928 -112.98189 36766 ft 491 kts 19°
2026-04-26 16:15 38.51402 -112.93151 36759 ft 492 kts 19°
2026-04-26 16:15 38.57686 -112.89796 36725 ft 492 kts 20°
2026-04-26 16:16 38.67170 -112.84716 36694 ft 491 kts 20°
2026-04-26 16:16 38.73468 -112.81335 36644 ft 491 kts 20°
2026-04-26 16:17 38.79766 -112.77937 36633 ft 491 kts 20°
2026-04-26 16:17 38.86028 -112.74561 36641 ft 491 kts 20°
2026-04-26 16:18 38.95479 -112.69459 36631 ft 491 kts 20°
2026-04-26 16:19 39.04934 -112.64334 36621 ft 491 kts 20°
2026-04-26 16:20 39.14372 -112.59215 36628 ft 490 kts 21°
2026-04-26 16:20 39.20621 -112.55811 36032 ft 492 kts 21°
2026-04-26 16:20 39.23799 -112.54077 34982 ft 497 kts 21°
2026-04-26 16:21 39.26985 -112.52338 34072 ft 498 kts 21°
2026-04-26 16:21 39.30195 -112.50674 33136 ft 496 kts 17°
2026-04-26 16:21 39.33513 -112.49468 32111 ft 494 kts 14°
2026-04-26 16:21 39.36841 -112.48368 31046 ft 493 kts 15°
2026-04-26 16:22 39.40167 -112.47268 29965 ft 492 kts 16°
2026-04-26 16:22 39.43478 -112.46174 28721 ft 491 kts 16°
2026-04-26 16:22 39.46794 -112.45077 27567 ft 489 kts 15°
2026-04-26 16:22 39.50035 -112.44002 26785 ft 481 kts 15°
2026-04-26 16:23 39.53253 -112.42929 26072 ft 473 kts 15°
2026-04-26 16:23 39.56426 -112.41868 25363 ft 467 kts 15°
2026-04-26 16:23 39.59555 -112.40823 24671 ft 461 kts 15°
2026-04-26 16:23 39.62650 -112.39793 23993 ft 456 kts 15°
2026-04-26 16:24 39.65710 -112.38775 23327 ft 452 kts 14°
2026-04-26 16:24 39.68755 -112.37759 22595 ft 448 kts 14°
2026-04-26 16:24 39.71713 -112.36772 21981 ft 442 kts 14°
2026-04-26 16:24 39.74682 -112.35778 21394 ft 437 kts 14°
2026-04-26 16:25 39.77611 -112.34795 20806 ft 432 kts 14°
2026-04-26 16:25 39.80506 -112.33824 20263 ft 427 kts 13°
2026-04-26 16:25 39.83384 -112.32860 19726 ft 423 kts 13°
2026-04-26 16:25 39.86219 -112.31907 19216 ft 419 kts 14°
2026-04-26 16:26 39.89032 -112.30959 18700 ft 416 kts 13°
2026-04-26 16:26 39.90886 -112.30334 18375 ft 413 kts 13°
2026-04-26 16:26 39.94563 -112.29094 17675 ft 409 kts 13°
2026-04-26 16:26 39.97290 -112.28173 17439 ft 398 kts 13°
2026-04-26 16:27 39.99943 -112.27273 17066 ft 390 kts 13°
2026-04-26 16:27 40.02531 -112.26398 16883 ft 378 kts 13°
2026-04-26 16:27 40.05071 -112.25542 16928 ft 375 kts 13°
2026-04-26 16:27 40.07594 -112.24688 16672 ft 373 kts 13°
2026-04-26 16:28 40.10101 -112.23838 16497 ft 372 kts 13°
2026-04-26 16:28 40.12608 -112.22991 16302 ft 371 kts 13°
2026-04-26 16:28 40.15109 -112.22145 16115 ft 370 kts 13°
2026-04-26 16:28 40.17574 -112.21309 15923 ft 370 kts 13°
2026-04-26 16:29 40.20060 -112.20468 15738 ft 369 kts 13°
2026-04-26 16:29 40.22544 -112.19628 15548 ft 369 kts 12°
2026-04-26 16:29 40.25059 -112.18775 15353 ft 372 kts 13°
2026-04-26 16:29 40.27577 -112.17918 15161 ft 372 kts 13°
2026-04-26 16:30 40.30045 -112.17075 14970 ft 372 kts 13°
2026-04-26 16:30 40.32545 -112.16220 14825 ft 371 kts 13°
2026-04-26 16:30 40.35047 -112.15365 14693 ft 370 kts 13°
2026-04-26 16:30 40.37540 -112.14515 14561 ft 369 kts 12°
2026-04-26 16:31 40.40031 -112.13664 14425 ft 370 kts 13°
2026-04-26 16:31 40.42524 -112.12816 14283 ft 370 kts 13°
2026-04-26 16:31 40.45020 -112.11969 14153 ft 369 kts 12°
2026-04-26 16:31 40.47506 -112.11125 14017 ft 368 kts 13°
2026-04-26 16:32 40.49985 -112.10279 13748 ft 368 kts 13°
2026-04-26 16:32 40.51624 -112.09720 13520 ft 367 kts 13°
2026-04-26 16:32 40.54889 -112.08618 13074 ft 364 kts 10°
2026-04-26 16:32 40.57385 -112.08202 12760 ft 359 kts
2026-04-26 16:33 40.59036 -112.08089 12550 ft 358 kts
2026-04-26 16:33 40.61531 -112.07922 12234 ft 356 kts
2026-04-26 16:33 40.63998 -112.07879 12008 ft 352 kts 353°
2026-04-26 16:33 40.66439 -112.08177 12010 ft 351 kts 352°
2026-04-26 16:34 40.68843 -112.08465 12011 ft 351 kts 352°
2026-04-26 16:34 40.71313 -112.08751 12003 ft 351 kts 353°
2026-04-26 16:34 40.73681 -112.09019 11993 ft 337 kts 353°
2026-04-26 16:34 40.75963 -112.09273 11989 ft 323 kts 353°
2026-04-26 16:35 40.78179 -112.09529 12001 ft 318 kts 352°
2026-04-26 16:35 40.80380 -112.09794 12005 ft 317 kts 352°
2026-04-26 16:35 40.82580 -112.10066 12000 ft 317 kts 352°
2026-04-26 16:35 40.84772 -112.10336 12005 ft 317 kts 352°
2026-04-26 16:36 40.86970 -112.10604 11995 ft 316 kts 352°
2026-04-26 16:36 40.89158 -112.10871 11983 ft 311 kts 352°
2026-04-26 16:36 40.91258 -112.11123 11978 ft 296 kts 351°
2026-04-26 16:36 40.93265 -112.11363 11977 ft 283 kts 351°
2026-04-26 16:37 40.95160 -112.11588 11980 ft 271 kts 351°
2026-04-26 16:37 40.96819 -112.11790 11978 ft 266 kts 351°
2026-04-26 16:37 40.98662 -112.12018 11983 ft 265 kts 351°
2026-04-26 16:37 41.00498 -112.12246 11988 ft 265 kts 351°
2026-04-26 16:38 41.02314 -112.12470 11988 ft 265 kts 351°
2026-04-26 16:38 41.04154 -112.12693 11993 ft 265 kts 351°
2026-04-26 16:38 41.05987 -112.12912 11996 ft 262 kts 351°
2026-04-26 16:38 41.07787 -112.13132 11992 ft 256 kts 352°
2026-04-26 16:39 41.09567 -112.13352 11998 ft 257 kts 351°
2026-04-26 16:39 41.11345 -112.13577 11983 ft 256 kts 352°
2026-04-26 16:39 41.13112 -112.13798 11699 ft 255 kts 352°
2026-04-26 16:39 41.14858 -112.14011 11398 ft 254 kts 352°
2026-04-26 16:40 41.16619 -112.14226 11090 ft 253 kts 352°
2026-04-26 16:40 41.18374 -112.14439 10792 ft 252 kts 352°
2026-04-26 16:40 41.20126 -112.14651 10491 ft 251 kts 352°
2026-04-26 16:40 41.21873 -112.14862 10186 ft 251 kts 352°
2026-04-26 16:41 41.23592 -112.15073 9991 ft 250 kts 352°
2026-04-26 16:41 41.25331 -112.15072 9981 ft 251 kts 11°
2026-04-26 16:41 41.26902 -112.14162 9843 ft 243 kts 39°
2026-04-26 16:41 41.27965 -112.12510 9723 ft 230 kts 65°
2026-04-26 16:42 41.28404 -112.10517 9502 ft 222 kts 90°
2026-04-26 16:42 41.28225 -112.08544 9221 ft 216 kts 113°
2026-04-26 16:42 41.27505 -112.06837 8899 ft 210 kts 135°
2026-04-26 16:42 41.26384 -112.05643 8607 ft 205 kts 155°
2026-04-26 16:43 41.25041 -112.05081 8291 ft 201 kts 175°
2026-04-26 16:43 41.23660 -112.04819 8026 ft 200 kts 174°
2026-04-26 16:43 41.22278 -112.04549 7746 ft 200 kts 175°
2026-04-26 16:43 41.20908 -112.04280 7552 ft 199 kts 173°
2026-04-26 16:44 41.19529 -112.04011 7494 ft 200 kts 174°
2026-04-26 16:44 41.18141 -112.03738 7508 ft 202 kts 174°
2026-04-26 16:44 41.16770 -112.03466 7498 ft 202 kts 174°
2026-04-26 16:44 41.15377 -112.03189 7508 ft 202 kts 174°
2026-04-26 16:45 41.13986 -112.02912 7509 ft 202 kts 174°
2026-04-26 16:45 41.12594 -112.02635 7494 ft 203 kts 173°
2026-04-26 16:45 41.11197 -112.02357 7505 ft 202 kts 174°
2026-04-26 16:45 41.09805 -112.02080 7508 ft 201 kts 175°
2026-04-26 16:46 41.08422 -112.01804 7500 ft 201 kts 175°
2026-04-26 16:46 41.07037 -112.01530 7501 ft 201 kts 172°
2026-04-26 16:46 41.05659 -112.01257 7506 ft 199 kts 173°
2026-04-26 16:46 41.04289 -112.00986 7502 ft 199 kts 173°
2026-04-26 16:47 41.02942 -112.00699 7506 ft 198 kts 169°
2026-04-26 16:47 41.01609 -112.00265 7499 ft 197 kts 171°
2026-04-26 16:47 41.00249 -111.99999 7498 ft 197 kts 175°
2026-04-26 16:47 40.98875 -111.99813 7493 ft 199 kts 176°
2026-04-26 16:48 40.97500 -111.99650 7496 ft 198 kts 177°
2026-04-26 16:48 40.96135 -111.99493 7296 ft 202 kts 178°
2026-04-26 16:48 40.94738 -111.99325 7031 ft 200 kts 176°
2026-04-26 16:48 40.93354 -111.99162 6765 ft 200 kts 175°
2026-04-26 16:49 40.91994 -111.99003 6538 ft 190 kts 175°
2026-04-26 16:49 40.90737 -111.98856 6265 ft 172 kts 176°
2026-04-26 16:49 40.89598 -111.98723 6043 ft 157 kts 176°
2026-04-26 16:49 40.88560 -111.98603 5847 ft 147 kts 176°
2026-04-26 16:50 40.87556 -111.98486 5664 ft 145 kts 175°
2026-04-26 16:50 40.86562 -111.98370 5463 ft 143 kts 175°
2026-04-26 16:50 40.85567 -111.98255 5283 ft 142 kts 175°
2026-04-26 16:50 40.84588 -111.98140 5074 ft 141 kts 175°
2026-04-26 16:51 40.83623 -111.98028 4880 ft 138 kts 173°
2026-04-26 16:51 40.82674 -111.97919 4681 ft 137 kts 174°
2026-04-26 16:51 40.81729 -111.97809 4495 ft 137 kts 176°
2026-04-26 16:51 40.80805 -111.97701 4311 ft 135 kts 173°
2026-04-26 16:52 40.79922 -111.97599 4231 ft 109 kts 175°
2026-04-26 16:52 40.79492 -111.97549 4230 ft 78 kts 175°
2026-04-26 16:52 40.78988 -111.97651 4234 ft 38 kts 214°
2026-04-26 16:52 40.78804 -111.97668 4234 ft 21 kts 195°
2026-04-26 16:53 40.78759 -111.97788 4234 ft 12 kts 268°
2026-04-26 16:53 40.78749 -111.97873 4234 ft 7 kts 261°
2026-04-26 16:53 40.78745 -111.97907 4234 ft 1 kts 261°
2026-04-26 16:53 40.78742 -111.97929 4234 ft 6 kts 262°
2026-04-26 16:54 40.78736 -111.98005 4234 ft 0 kts 262°
2026-04-26 16:54 40.78730 -111.98020 4234 ft 9 kts 240°
2026-04-26 16:54 40.78682 -111.98033 4234 ft 6 kts 168°
2026-04-26 16:54 40.78650 -111.98029 4234 ft 3 kts 175°
2026-04-26 16:55 40.78648 -111.98028 4234 ft 0 kts 175°